GSAT0103 (GALILEO-FM3)

Last updated on Wed Jul 02 2025 00:02:33 GMT+0000 (Coordinated Universal Time)

1 38857U 12055A 25182.11028188 -.00000012 00000+0 00000+0 0 9993 2 38857 55.5962 111.1898 0004482 295.3199 64.6183 1.70473548 79025
UTC large
Height (km)
Speed (km/s)
/
Latitude / Longitude
Inclination (degrees)
Orbital Period (minutes)
Azimuth
Elevation
Range (km)
Doppler Factor

Next 0 passes for location: London (51.5072 / 0.1276)

Sorry there are no passes over London.